User: anonymous   Login
Location: B�rgermoos
(47.6500°N, 9.0667°E)
Time: 10:25:38
(UTC+00:00)
Language:

Transit 2A - Orbit

View from above orbital plane
View from above orbital plane
View from above satellite
View from above satellite

Ground track
Ground track

The orbit data is extracted from the following two-line orbital elements,

1 00045U 60007A   21214.88679537 -.00000064  00000-0  10963-4 0  9999
2 00045  66.6956  16.6528 0253292  14.5006 346.3186 14.33728626124815
Epoch (UTC): 02 August 2021 21:16:59
Eccentricity: 0.0253292
inclination: 66.6956°
perigee height: 598 km
apogee height: 960 km
right ascension of ascending node: 16.6528°
argument of perigee: 14.5006°
revolutions per day: 14.33728626
mean anomaly at epoch: 346.3186°
orbit number at epoch: 12481

The dashed part of the orbit path shows where the satellite is in the earth's shadow,  

DLR